This is the latest recevied weather packets stored in our database for station/object ZR6G-15. If no packets are shown the sender has not sent any weather packets the latest 10 day(s).
| Time | Temp. | Humidity | Pressure | Rain* | Wind** | Luminosity | Snow |
|---|---|---|---|---|---|---|---|
| 1777662226 | 15° C | 39% | 1015.1 hPa | - | - | - | - |
| 1777661622 | 15.56° C | 36% | 1014.9 hPa | - | - | - | - |
| 1777661017 | 15.56° C | 37% | 1014.7 hPa | - | - | - | - |
| 1777660413 | 15.56° C | 36% | 1014.4 hPa | - | - | - | - |
| 1777659808 | 15.56° C | 35% | 1014.4 hPa | - | - | - | - |
| 1777659203 | 15.56° C | 36% | 1014.3 hPa | - | - | - | - |
| 1777658599 | 15.56° C | 37% | 1014.2 hPa | - | - | - | - |
| 1777657994 | 15.56° C | 35% | 1014.2 hPa | - | - | - | - |
| 1777657390 | 15.56° C | 35% | 1014.1 hPa | - | - | - | - |
| 1777656785 | 15.56° C | 34% | 1014 hPa | - | - | - | - |
| 1777656180 | 15.56° C | 35% | 1014.1 hPa | - | - | - | - |
| 1777655576 | 15.56° C | 35% | 1013.8 hPa | - | - | - | - |
| 1777654971 | 15.56° C | 35% | 1013.6 hPa | - | - | - | - |
| 1777654369 | 15.56° C | 35% | 1013.4 hPa | - | - | - | - |
| 1777653762 | 16.67° C | 34% | 1013.3 hPa | - | - | - | - |
| 1777653154 | 16.67° C | 34% | 1013.1 hPa | - | - | - | - |
| 1777652550 | 16.67° C | 32% | 1012.8 hPa | - | - | - | - |
| 1777651945 | 16.67° C | 31% | 1012.5 hPa | - | - | - | - |
| 1777651340 | 16.67° C | 30% | 1012 hPa | - | - | - | - |
| 1777650735 | 16.67° C | 30% | 1011.8 hPa | - | - | - | - |
| 1777650131 | 16.67° C | 30% | 1011.7 hPa | - | - | - | - |
| 1777649527 | 16.67° C | 27% | 1011.4 hPa | - | - | - | - |
| 1777648922 | 17.78° C | 32% | 1011.3 hPa | - | - | - | - |
| 1777648317 | 17.78° C | 26% | 1011.1 hPa | - | - | - | - |
| 1777647713 | 17.78° C | 25% | 1011 hPa | - | - | - | - |
* Rain since midnight (hover to see other rain measurements)
** Current wind speed in m/s (hover to see current wind gust speed)